GW5867 Weather Reports


time (UTC)temp
C
wind
direction
speed
KPH
gust
KPH
rain 1hr
cm
rain 24hr
cm
rain mn
cm
humidity
%
barometer
mb
20260504151005 15 294 12.9 40.2 0.00 0.00 0.00 40 1010.6
20260504150509 15 234 16.1 41.8 0.00 0.00 0.00 39 1010.5
20260504141006 13 244 8.0 32.2 0.00 0.00 0.00 42 1011.0
20260504140507 13 185 14.5 32.2 0.00 0.00 0.00 41 1011.0
20260504130508 11 213 6.4 27.4 0.00 0.00 0.00 49 1011.4
20260504110504 7 208 8.0 16.1 0.00 0.00 0.00 58 1011.4
20260504100508 6 192 6.4 16.1 0.00 0.00 0.00 58 1011.0
20260504082006 5 173 4.8 9.7 0.00 0.00 0.00 66 1010.5
20260504081530 5 184 3.2 11.3 0.00 0.00 0.00 65 1010.5
20260504081007 5 165 4.8 11.3 0.00 0.00 0.00 64 1010.5
20260504080509 5 171 3.2 8.0 0.00 0.00 0.00 66 1010.5
20260504050506 5 159 3.2 8.0 0.00 0.00 0.00 69 1010.6
20260504050021 4 173 4.8 8.0 0.00 0.00 0.00 70 1010.7
20260504045507 3 175 3.2 8.0 0.00 0.00 0.00 73 1010.7
20260504045005 3 178 3.2 6.4 0.00 0.00 0.00 75 1010.7
20260504044524 3 164 3.2 6.4 0.00 0.00 0.00 77 1010.8
20260504044009 3 180 1.6 3.2 0.00 0.00 0.00 77 1010.9
20260504043509 3 190 3.2 3.2 0.00 0.00 0.00 76 1010.9
20260504043028 3 198 1.6 3.2 0.00 0.00 0.00 75 1010.9
20260504042507 3 199 1.6 3.2 0.00 0.00 0.00 74 1010.8
20260504042008 3 201 1.6 3.2 0.00 0.00 0.00 74 1010.8
20260504041533 3 201 1.6 3.2 0.00 0.00 0.00 73 1010.7
20260504041005 3 201 3.2 3.2 0.00 0.00 0.00 73 1010.7
20260504040507 3 199 1.6 3.2 0.00 0.00 0.00 71 1010.8
20260504040021 3 199 1.6 4.8 0.00 0.00 0.00 71 1010.8
20260504035506 3 199 3.2 4.8 0.00 0.00 0.00 71 1010.7
20260504035006 3 200 3.2 4.8 0.00 0.00 0.00 71 1010.7
20260504034523 3 198 1.6 4.8 0.00 0.00 0.00 70 1010.6
20260504034006 3 198 1.6 4.8 0.00 0.00 0.00 70 1010.6
20260504033506 3 199 3.2 4.8 0.00 0.00 0.00 69 1010.7
20260504033027 4 193 3.2 3.2 0.00 0.00 0.00 68 1010.6
20260504032511 4 193 1.6 3.2 0.00 0.00 0.00 67 1010.7
20260504032009 4 193 3.2 3.2 0.00 0.00 0.00 66 1010.6
20260504031528 4 193 1.6 3.2 0.00 0.00 0.00 66 1010.6
20260504031010 4 193 3.2 4.8 0.00 0.00 0.00 67 1010.5
20260504030509 4 192 3.2 4.8 0.00 0.00 0.00 66 1010.4
20260504030014 4 202 1.6 4.8 0.00 0.00 0.00 65 1010.5
20260504025504 4 203 3.2 4.8 0.00 0.00 0.00 65 1010.5
20260504025005 5 204 3.2 4.8 0.00 0.00 0.00 64 1010.4
20260504024519 5 335 0.0 4.8 0.00 0.00 0.00 64 1010.4
20260504024005 5 290 3.2 4.8 0.00 0.00 0.00 64 1010.4
20260504023507 4 230 1.6 4.8 0.00 0.00 0.00 64 1010.5
20260504023021 5 333 1.6 4.8 0.00 0.00 0.00 63 1010.5
20260504022507 5 207 1.6 3.2 0.00 0.00 0.00 63 1010.6
20260504022009 5 197 0.0 3.2 0.00 0.00 0.00 60 1010.6
20260504021524 5 197 1.6 3.2 0.00 0.00 0.00 60 1010.6
20260504021008 5 197 3.2 3.2 0.00 0.00 0.00 61 1010.6
20260504020510 5 200 1.6 3.2 0.00 0.00 0.00 61 1010.5
20260504020035 5 200 1.6 4.8 0.00 0.00 0.00 61 1010.5
20260504015510 6 209 1.6 4.8 0.00 0.00 0.00 60 1010.4
20260504015010 6 242 0.0 3.2 0.00 0.00 0.00 60 1010.5
20260504014520 6 272 0.0 3.2 0.00 0.00 0.00 60 1010.5
20260504014010 6 293 0.0 1.6 0.00 0.00 0.00 58 1010.4
20260504013511 6 295 0.0 6.4 0.00 0.00 0.00 55 1010.2
20260504013024 6 347 0.0 6.4 0.00 0.00 0.00 53 1010.1
20260504012510 7 318 0.0 4.8 0.00 0.00 0.00 50 1010.1
20260504012008 7 5 0.0 4.8 0.00 0.00 0.00 50 1010.1
20260504011525 7 22 0.0 6.4 0.00 0.00 0.00 48 1010.0
20260504011006 7 328 0.0 9.7 0.00 0.00 0.00 46 1010.0
20260504010512 7 360 0.0 9.7 0.00 0.00 0.00 45 1009.9
20260504010011 7 302 3.2 9.7 0.00 0.00 0.00 44 1009.9
20260504005504 7 325 4.8 12.9 0.00 0.00 0.00 42 1009.8
20260504005005 7 342 6.4 12.9 0.00 0.00 0.00 43 1009.8
20260504004516 7 331 4.8 12.9 0.00 0.00 0.00 43 1009.7
20260504004003 7 311 6.4 12.9 0.00 0.00 0.00 44 1009.7
20260504003505 7 350 1.6 4.8 0.00 0.00 0.00 44 1009.7
20260504003018 7 340 1.6 8.0 0.00 0.00 0.00 44 1009.6
20260504002505 7 22 1.6 8.0 0.00 0.00 0.00 46 1009.5
20260504002008 7 360 1.6 6.4 0.00 0.00 0.00 48 1009.4
20260504001530 7 15 3.2 6.4 0.00 0.00 0.00 43 1009.2
20260504001008 8 47 1.6 6.4 0.00 0.00 0.00 43 1009.1
20260504000508 8 335 1.6 6.4 0.00 0.00 0.00 43 1009.2
20260504000025 8 318 0.0 11.3 0.00 0.00 0.00 42 1009.1
20260503235506 8 319 3.2 11.3 0.00 0.00 0.00 37 1009.1
20260503235009 8 311 3.2 9.7 0.00 0.00 0.00 37 1009.0
20260503234516 8 344 3.2 9.7 0.00 0.00 0.00 39 1009.0
20260503234003 8 313 1.6 11.3 0.00 0.00 0.00 38 1008.9
20260503233502 8 315 3.2 11.3 0.00 0.00 0.00 38 1008.9
20260503233019 8 291 4.8 8.0 0.00 0.00 0.00 37 1008.9
20260503232503 8 78 0.0 17.7 0.00 0.00 0.00 36 1008.8
20260503232007 9 333 4.8 17.7 0.00 0.00 0.00 36 1008.8
20260503231522 9 352 4.8 17.7 0.00 0.00 0.00 35 1008.8
20260503231007 9 360 1.6 12.9 0.00 0.00 0.00 35 1008.8
20260503230507 9 331 4.8 24.1 0.00 0.00 0.00 35 1008.7
20260503230036 9 264 12.9 24.1 0.00 0.00 0.00 34 1008.7
20260503225508 9 33 4.8 19.3 0.00 0.00 0.00 35 1008.7
20260503225007 9 306 3.2 16.1 0.00 0.00 0.00 36 1008.7
20260503224527 9 187 6.4 20.9 0.00 0.00 0.00 35 1008.7
20260503224007 9 329 9.7 22.5 0.00 0.00 0.00 34 1008.7
20260503223511 9 292 4.8 22.5 0.00 0.00 0.00 34 1008.7
20260503223016 10 360 11.3 20.9 0.00 0.00 0.00 36 1008.6
20260503222503 10 352 12.9 22.5 0.00 0.00 0.00 35 1008.7
20260503222007 10 352 9.7 24.1 0.00 0.00 0.00 36 1008.6
20260503221515 10 240 6.4 24.1 0.00 0.00 0.00 36 1008.6
20260503221007 10 15 4.8 24.1 0.00 0.00 0.00 36 1008.6
20260503220509 10 302 12.9 24.1 0.00 0.00 0.00 36 1008.7
20260503220022 10 352 9.7 24.1 0.00 0.00 0.00 37 1008.5
20260503215508 10 292 9.7 24.1 0.00 0.00 0.00 37 1008.4
20260503215010 10 34 9.7 20.9 0.00 0.00 0.00 39 1008.5
20260503214536 10 117 8.0 25.7 0.00 0.00 0.00 37 1008.5
20260503214010 10 5 8.0 25.7 0.00 0.00 0.00 38 1008.5
20260503213510 10 352 6.4 24.1 0.00 0.00 0.00 39 1008.4
20260503213028 10 13 12.9 29.0 0.00 0.00 0.00 38 1008.4
20260503212508 10 13 12.9 29.0 0.00 0.00 0.00 38 1008.3
20260503212011 10 317 8.0 25.7 0.00 0.00 0.00 38 1008.3
20260503211516 10 38 4.8 27.4 0.00 0.00 0.00 37 1008.5
20260503211008 10 333 14.5 27.4 0.00 0.00 0.00 37 1008.3
20260503210506 10 342 4.8 22.5 0.00 0.00 0.00 40 1008.3
20260503210020 10 338 12.9 35.4 0.00 0.00 0.00 39 1008.3
20260503205509 9 9 9.7 35.4 0.00 0.00 0.00 38 1008.5
20260503205008 9 305 14.5 37.0 0.00 0.00 0.00 39 1008.6
20260503204525 10 25 14.5 37.0 0.00 0.00 0.00 40 1008.6
20260503204008 9 360 14.5 37.0 0.00 0.00 0.00 41 1008.5
20260503203506 9 317 6.4 37.0 0.00 0.00 0.00 39 1008.5
20260503203033 9 22 11.3 32.2 0.00 0.00 0.00 40 1008.5
20260503202511 9 268 12.9 32.2 0.00 0.00 0.00 41 1008.5
20260503202015 8 360 9.7 29.0 0.00 0.00 0.00 42 1008.3
20260503201526 8 333 12.9 32.2 0.00 0.00 0.00 41 1008.2
20260503201007 8 350 9.7 33.8 0.00 0.00 0.00 41 1008.5
20260503200509 8 30 14.5 33.8 0.00 0.00 0.00 41 1008.4
20260503200017 8 336 6.4 33.8 0.00 0.00 0.00 43 1008.5
20260503195505 8 314 19.3 35.4 0.00 0.00 0.00 41 1008.5
20260503195008 8 327 17.7 35.4 0.00 0.00 0.00 42 1008.6
20260503194525 8 306 16.1 32.2 0.00 0.00 0.00 40 1008.6
20260503194009 9 360 16.1 29.0 0.00 0.00 0.00 39 1008.6
20260503193509 9 5 17.7 27.4 0.00 0.00 0.00 40 1008.7
20260503193040 9 298 12.9 27.4 0.00 0.00 0.00 39 1008.6
20260503192509 9 281 11.3 27.4 0.00 0.00 0.00 40 1008.7
20260503192004 9 352 14.5 24.1 0.00 0.00 0.00 41 1008.7
20260503191524 8 349 11.3 35.4 0.00 0.00 0.00 42 1008.6
20260503191004 8 46 14.5 35.4 0.00 0.00 0.00 41 1008.7
20260503190504 8 5 17.7 30.6 0.00 0.00 0.00 41 1008.6
20260503190023 8 326 12.9 35.4 0.00 0.00 0.00 43 1008.7
20260503185503 8 336 8.0 35.4 0.00 0.00 0.00 42 1008.7
20260503185006 8 328 16.1 33.8 0.00 0.00 0.00 43 1008.7
20260503184515 7 146 17.7 33.8 0.00 0.00 0.00 43 1008.8
20260503184005 7 300 14.5 40.2 0.00 0.00 0.00 44 1008.9
20260503183502 7 344 20.9 40.2 0.00 0.00 0.00 42 1008.8
20260503183005 7 333 9.7 30.6 0.00 0.00 0.00 45 1008.9
20260503182503 7 286 14.5 30.6 0.00 0.00 0.00 44 1008.9
20260503182004 7 338 8.0 25.7 0.00 0.00 0.00 43 1008.9
20260503181508 7 284 11.3 25.7 0.00 0.00 0.00 43 1008.8
20260503181004 7 334 8.0 32.2 0.00 0.00 0.00 43 1008.9
20260503180504 7 317 9.7 32.2 0.00 0.00 0.00 42 1008.9
20260503180014 7 5 8.0 27.4 0.00 0.00 0.00 43 1008.8
20260503175507 7 338 8.0 32.2 0.00 0.00 0.00 43 1008.8
20260503175003 7 352 16.1 32.2 0.00 0.00 0.00 43 1008.7
20260503174514 7 325 11.3 27.4 0.00 0.00 0.00 44 1008.8
20260503174007 7 5 11.3 32.2 0.00 0.00 0.00 45 1008.6
20260503173505 7 313 17.7 32.2 0.00 0.00 0.00 43 1008.8
20260503173015 7 9 14.5 33.8 0.00 0.00 0.00 42 1008.7
20260503172505 7 360 17.7 33.8 0.00 0.00 0.00 42 1008.6
20260503172001 7 321 11.3 25.7 0.00 0.00 0.00 42 1008.5
20260503171508 7 294 16.1 25.7 0.00 0.00 0.00 41 1008.5
20260503171002 7 360 11.3 24.1 0.00 0.00 0.00 44 1008.5
20260503170507 7 15 8.0 30.6 0.00 0.00 0.00 41 1008.6